[[{"header":{"parameterUnit":"m.s-1","parameterCategory":1,"la1":30.2991,"la2":30.254,"lo1":-89.0895,"lo2":-89.0444,"dy":0.0017,"dx":0.0017,"nx":28,"ny":28,"refTime":"2025-12-31T09:00:00:Z","depth":0,"parameterNumber":2,"parameterNumberName":"U-component_of_WINDS"},"data":[0,0,0,0,0,0,0,0,0,0,0,0,0,0,0,0,0,0,0,0,0,0,0,0,0,0,0,0,0,0,0,0,0,0,0,0,0,0,0,0,0,0,0,0,0,0,0,0,0,0,0,0,0,0,0,0,0,0,0.6628,0.6628,0,0.6563,0.6562,0.6561,0.655,0.6551,0.6551,0.6552,0.6482,0.6479,0.6477,0,0,0,0,0,0,0,0,0,0,0,0,0,0.6742,0.674,0.6628,0.6628,0.6627,0.6563,0.6562,0.6561,0.655,0.6551,0.6552,0.6552,0.6483,0.648,0.6477,0,0,0,0,0,0,0,0,0,0,0,0,0,0.6686,0.674,0.6629,0.6614,0.6612,0.6563,0.6562,0.6561,0.655,0.6551,0.6552,0.6553,0.6484,0.648,0.6476,0.6437,0,0,0.6465,0.6464,0,0,0,0,0,0,0,0,0.669,0.6682,0.6617,0.6615,0.6612,0.6566,0.6576,0.6519,0.655,0.6573,0.6552,0.6553,0.6509,0.6503,0.6489,0.6434,0.6431,0.6465,0.6463,0.6461,0.646,0,0,0,0,0,0,0,0.6694,0.6685,0.6602,0.6616,0.6613,0.661,0.6603,0.6566,0.6537,0.6571,0.657,0.6563,0.6508,0.6492,0.6487,0.643,0.6465,0.6462,0.646,0.6458,0.6339,0.6338,0,0,0,0,0,0,0.67,0.6688,0.6604,0.66,0.6654,0.6607,0.6599,0.658,0.6537,0.6532,0.6562,0.6563,0.6498,0.6491,0.6485,0.6436,0.6461,0.6458,0.6456,0.634,0.6339,0.6338,0,0,0,0,0,0,0.6703,0.6693,0.6607,0.6644,0.6633,0.6604,0.6582,0.6578,0.6563,0.6531,0.6525,0.6552,0.6499,0.649,0.6449,0.6433,0.6456,0.6453,0.6341,0.634,0.6339,0.6337,0,0,0,0,0,0,0.6706,0.6694,0.6679,0.6644,0.6631,0.6573,0.6581,0.6576,0.6557,0.6557,0.6519,0.6514,0.6499,0.6455,0.6446,0.6428,0.645,0.6343,0.6341,0.6339,0.6338,0.6336,0.6333,0,0,0,0,0,0.671,0.6681,0.6678,0.6668,0.6612,0.6572,0.6565,0.6548,0.6556,0.654,0.652,0.6515,0.6437,0.6451,0.644,0.6422,0.6344,0.6341,0.6339,0.634,0.6336,0.6334,0,0,0,0,0,0,0.6713,0.6676,0.6673,0.6631,0.6605,0.6571,0.655,0.6545,0.6516,0.6517,0.6497,0.6489,0.645,0.6432,0.6448,0.6382,0.6391,0.6386,0.6394,0.6391,0.6389,0.6393,0.6447,0,0,0,0,0,0.6709,0.6681,0.665,0.6616,0.6603,0.6579,0.6561,0.6551,0.6523,0.6512,0.6488,0.6461,0.643,0.641,0.6379,0.6337,0.6328,0.6319,0.6316,0.6314,0.631,0.6286,0.6282,0.6331,0.6331,0.6331,0,0,0.67,0.6676,0.6659,0.6616,0.6594,0.6565,0.657,0.6538,0.6516,0.6507,0.6467,0.6449,0.6417,0.6375,0.6356,0.6359,0.6295,0.6312,0.631,0.6307,0.6284,0.6279,0.6275,0.6329,0.6329,0.633,0,0,0.6668,0.6648,0.6617,0.6596,0.6565,0.6549,0.6542,0.6509,0.6497,0.6457,0.645,0.6423,0.637,0.6347,0.6329,0.6291,0.6285,0.6281,0.6268,0.6245,0.6241,0.6237,0.6223,0.6218,0.6278,0.6278,0.6278,0,0.666,0.6617,0.6602,0.6571,0.6552,0.6544,0.6512,0.6492,0.6452,0.6439,0.6444,0.6378,0.6356,0.6309,0.63,0.6285,0.6276,0.6285,0.6243,0.6239,0.6235,0.6221,0.6216,0.6278,0.6278,0.6278,0.6278,0,0.6608,0.6578,0.6557,0.652,0.6499,0.6468,0.6448,0.6428,0.642,0.6404,0.6364,0.6338,0.6302,0.629,0.6282,0.6242,0.6245,0.6247,0.6255,0.6231,0.6217,0.6212,0.6277,0.6277,0.6277,0.6277,0,0,0.6575,0.6531,0.6523,0.6506,0.6472,0.6448,0.6417,0.6383,0.6366,0.6339,0.6312,0.6269,0.627,0.6249,0.6239,0.6219,0.6189,0.6222,0.6221,0.6216,0.6144,0.6142,0.6136,0.6187,0.6186,0.6185,0.6146,0,0.6538,0.6483,0.6469,0.6422,0.6394,0.6386,0.6359,0.6335,0.6319,0.6293,0.6276,0.6245,0.625,0.6237,0.6217,0.6197,0.6174,0.62,0.616,0.6159,0.6167,0.6129,0.6127,0.6091,0.6141,0.614,0.6139,0,0.6487,0.6461,0.6411,0.6381,0.6368,0.6344,0.6312,0.6288,0.626,0.625,0.6228,0.6219,0.6186,0.6198,0.6152,0.617,0.6153,0.6141,0.6139,0.6134,0.6147,0.6121,0.608,0.6074,0.6131,0.6132,0.6132,0,0.6467,0.6418,0.6382,0.6368,0.6332,0.6316,0.63,0.6273,0.6254,0.6226,0.6214,0.6182,0.6165,0.6141,0.6124,0.6134,0.6079,0.6089,0.6069,0.607,0.6056,0.6057,0.6011,0.6048,0.6048,0.6048,0.6048,0,0.6427,0.6396,0.6373,0.635,0.6316,0.6301,0.6267,0.6251,0.6228,0.6202,0.6194,0.617,0.615,0.6122,0.6109,0.6073,0.6065,0.6056,0.6052,0.6056,0.6057,0.6043,0.6045,0.6047,0.6047,0.6047,0.6047,0,0.6397,0.638,0.6341,0.631,0.6302,0.6278,0.6252,0.623,0.6215,0.6183,0.6174,0.615,0.6118,0.61,0.6059,0.605,0.6009,0.6008,0.6019,0.6017,0.5998,0.6,0.594,0.5931,0.5975,0.5975,0.5975,0,0.6372,0.6349,0.6316,0.6299,0.6283,0.6255,0.6236,0.6221,0.6201,0.6169,0.615,0.6118,0.6091,0.604,0.6019,0.5988,0.5984,0.5966,0.5979,0.5984,0.5983,0.5984,0.5982,0.5963,0.5962,0.5962,0.5962,0,0.6329,0.6322,0.6295,0.6266,0.6244,0.6219,0.6195,0.6181,0.6162,0.614,0.6108,0.6087,0.6047,0.6014,0.5982,0.5965,0.596,0.5958,0.5952,0.5954,0.5961,0.5956,0.6011,0.5959,0.5959,0.5959,0.596,0.596,0.63,0.6279,0.6253,0.6224,0.6205,0.6183,0.6161,0.6144,0.6117,0.6083,0.6076,0.6041,0.6015,0.5971,0.5953,0.5926,0.5929,0.592,0.5918,0.5915,0.5914,0.5967,0.592,0.592,0.592,0.592,0.592,0,0.6256,0.6239,0.6213,0.618,0.6157,0.6156,0.613,0.611,0.608,0.6057,0.6031,0.5994,0.5963,0.594,0.5909,0.5891,0.5888,0.5883,0.5884,0.588,0.5914,0.5922,0.5886,0.5886,0.5886,0.5886,0.5886,0.5886,0.623,0.6194,0.6185,0.614,0.6123,0.609,0.6075,0.6055,0.6036,0.5995,0.597,0.5956,0.5933,0.59,0.5871,0.5865,0.5853,0.5849,0.5842,0.5874,0.5877,0.5881,0.5889,0.5847,0.5847,0.5811,0.5811,0.581]},{"header":{"parameterUnit":"m.s-1","parameterCategory":1,"la1":30.2991,"la2":30.254,"lo1":-89.0895,"lo2":-89.0444,"dy":0.0017,"dx":0.0017,"nx":28,"ny":28,"refTime":"2025-12-31T09:00:00:Z","depth":0,"parameterNumber":3,"parameterNumberName":"V-component_of_WINDS"},"data":[0,0,0,0,0,0,0,0,0,0,0,0,0,0,0,0,0,0,0,0,0,0,0,0,0,0,0,0,0,0,0,0,0,0,0,0,0,0,0,0,0,0,0,0,0,0,0,0,0,0,0,0,0,0,0,0,0,0,-3.9049,-3.9051,0,-3.9217,-3.9219,-3.9221,-3.9185,-3.9182,-3.9179,-3.9176,-3.9346,-3.9353,-3.936,0,0,0,0,0,0,0,0,0,0,0,0,0,-3.8696,-3.8702,-3.9049,-3.9051,-3.9053,-3.9217,-3.9219,-3.9221,-3.9186,-3.9182,-3.9178,-3.9175,-3.9343,-3.9352,-3.9361,0,0,0,0,0,0,0,0,0,0,0,0,0,-3.8855,-3.8705,-3.9049,-3.9056,-3.9058,-3.9216,-3.9219,-3.9222,-3.9187,-3.9182,-3.9177,-3.9173,-3.934,-3.9351,-3.9362,-3.9524,0,0,-3.9396,-3.9401,0,0,0,0,0,0,0,0,-3.8846,-3.8868,-3.9052,-3.9055,-3.9058,-3.9176,-3.9157,-3.9323,-3.9188,-3.9138,-3.9176,-3.9171,-3.9293,-3.9308,-3.9349,-3.9532,-3.9539,-3.9397,-3.9404,-3.9409,-3.9412,0,0,0,0,0,0,0,-3.8835,-3.886,-3.9116,-3.9055,-3.9059,-3.9049,-3.9067,-3.9188,-3.9239,-3.9142,-3.914,-3.916,-3.9293,-3.9339,-3.9353,-3.9542,-3.9397,-3.9407,-3.9414,-3.9418,-3.9865,-3.987,0,0,0,0,0,0,-3.8822,-3.8851,-3.911,-3.9121,-3.8938,-3.9059,-3.9079,-3.9143,-3.9238,-3.9248,-3.9164,-3.9158,-3.9322,-3.934,-3.9359,-3.9555,-3.9409,-3.9419,-3.9425,-3.986,-3.9866,-3.9872,0,0,0,0,0,0,-3.8814,-3.8845,-3.9103,-3.8986,-3.9018,-3.9071,-3.9142,-3.9148,-3.9193,-3.9255,-3.9263,-3.9201,-3.9319,-3.9343,-3.9483,-3.956,-3.9424,-3.9434,-3.9854,-3.9862,-3.9869,-3.9947,0,0,0,0,0,0,-3.8804,-3.8843,-3.8905,-3.8987,-3.9024,-3.9226,-3.9147,-3.9155,-3.9213,-3.9207,-3.9292,-3.9301,-3.9317,-3.9467,-3.9494,-3.9573,-3.9443,-3.9847,-3.9857,-3.9867,-3.9938,-3.9957,-3.9973,0,0,0,0,0,-3.8792,-3.892,-3.8909,-3.894,-3.9104,-3.9231,-3.9252,-3.9268,-3.9219,-3.9282,-3.9322,-3.9298,-3.9547,-3.9482,-3.9512,-3.9595,-3.9842,-3.9855,-3.9866,-3.993,-3.9953,-3.9972,0,0,0,0,0,0,-3.8845,-3.8931,-3.8919,-3.9078,-3.9147,-3.9224,-3.9305,-3.9292,-3.9376,-3.9367,-3.9383,-3.9402,-3.9545,-3.9584,-3.9509,-3.9756,-3.9688,-3.9706,-3.9726,-3.9748,-3.9765,-3.9753,-3.9452,0,0,0,0,0,-3.8875,-3.8972,-3.9041,-3.9175,-3.921,-3.9252,-3.9307,-3.9314,-3.9387,-3.9415,-3.9465,-3.9535,-3.9629,-3.9691,-3.978,-3.9943,-3.9961,-4.0015,-4.0033,-4.0046,-4.0062,-4.0151,-4.0176,-3.9911,-3.991,-3.991,0,0,-3.8938,-3.8997,-3.9057,-3.9187,-3.9241,-3.9341,-3.9276,-3.9384,-3.9458,-3.9431,-3.9567,-3.9606,-3.9685,-3.9838,-3.9907,-3.9875,-4.014,-4.0061,-4.0072,-4.0081,-4.0166,-4.0191,-4.0214,-3.9919,-3.9917,-3.9916,0,0,-3.9104,-3.9159,-3.9276,-3.9332,-3.9416,-3.9443,-3.9471,-3.955,-3.9576,-3.9712,-3.9695,-3.9782,-3.9943,-4.0001,-4.0051,-4.0239,-4.0221,-4.0268,-4.0359,-4.0445,-4.0466,-4.0485,-4.0552,-4.0576,-4.0283,-4.0284,-4.0284,0,-3.9172,-3.9322,-3.9338,-3.9448,-3.9505,-3.9487,-3.9605,-3.9659,-3.9767,-3.9807,-3.9769,-3.9971,-4.0023,-4.0189,-4.0235,-4.0276,-4.0308,-4.0258,-4.0462,-4.0481,-4.0499,-4.0563,-4.0588,-4.0289,-4.0288,-4.0288,-4.0287,0,-3.9402,-3.9506,-3.959,-3.9696,-3.9763,-3.9877,-3.9909,-3.9974,-3.9975,-4.0006,-4.0145,-4.0207,-4.0309,-4.0349,-4.035,-4.0515,-4.0492,-4.0458,-4.0389,-4.0529,-4.059,-4.0614,-4.0296,-4.0294,-4.0293,-4.0291,0,0,-3.9606,-3.972,-3.9751,-3.9799,-3.989,-3.997,-4.0083,-4.0183,-4.0239,-4.0315,-4.0409,-4.0546,-4.0515,-4.0573,-4.058,-4.0656,-4.0802,-4.0613,-4.0615,-4.0646,-4.0987,-4.1013,-4.1041,-4.079,-4.0795,-4.0799,-4.098,0,-3.9781,-3.9981,-3.9998,-4.0177,-4.0273,-4.0257,-4.0354,-4.0421,-4.0452,-4.0537,-4.0571,-4.0669,-4.062,-4.0655,-4.0729,-4.0768,-4.087,-4.0755,-4.0878,-4.0882,-4.0859,-4.1073,-4.11,-4.1269,-4.1004,-4.1008,-4.1011,0,-4.0012,-4.0095,-4.0284,-4.0362,-4.0403,-4.0491,-4.0584,-4.0666,-4.0741,-4.0758,-4.0822,-4.082,-4.0935,-4.0861,-4.102,-4.0941,-4.0992,-4.1019,-4.1026,-4.1038,-4.0956,-4.1091,-4.1323,-4.1349,-4.1049,-4.1046,-4.1043,0,-4.0143,-4.0302,-4.0435,-4.0477,-4.0571,-4.0633,-4.0675,-4.0745,-4.0804,-4.0886,-4.0925,-4.1018,-4.1069,-4.1142,-4.1164,-4.1109,-4.1322,-4.125,-4.1339,-4.1339,-4.1386,-4.1382,-4.1629,-4.1418,-4.1417,-4.1417,-4.1416,0,-4.0337,-4.0453,-4.0496,-4.0578,-4.0707,-4.0726,-4.0853,-4.0891,-4.0954,-4.1043,-4.1034,-4.1117,-4.1142,-4.1229,-4.1247,-4.1376,-4.1399,-4.1416,-4.142,-4.1417,-4.1415,-4.1451,-4.144,-4.1423,-4.1422,-4.1421,-4.142,0,-4.0505,-4.0538,-4.0683,-4.076,-4.0782,-4.0875,-4.094,-4.1019,-4.1049,-4.1162,-4.1189,-4.1235,-4.1338,-4.1368,-4.1491,-4.1503,-4.1654,-4.1647,-4.163,-4.163,-4.1717,-4.1709,-4.1997,-4.2035,-4.1798,-4.18,-4.1802,0,-4.0627,-4.0716,-4.0803,-4.0863,-4.0907,-4.1003,-4.1064,-4.1085,-4.1148,-4.124,-4.1308,-4.1409,-4.1492,-4.1657,-4.1701,-4.1795,-4.179,-4.1884,-4.1804,-4.1799,-4.1792,-4.1787,-4.1796,-4.1899,-4.1902,-4.1904,-4.1906,0,-4.084,-4.0852,-4.094,-4.1035,-4.1108,-4.1184,-4.1256,-4.1305,-4.1336,-4.1408,-4.1514,-4.1578,-4.1704,-4.1805,-4.19,-4.1942,-4.193,-4.1931,-4.1956,-4.1955,-4.1942,-4.1951,-4.1672,-4.1924,-4.1922,-4.1921,-4.192,-4.1919,-4.0989,-4.1068,-4.1141,-4.124,-4.1297,-4.1365,-4.1443,-4.1483,-4.1572,-4.1677,-4.1683,-4.1798,-4.1869,-4.1996,-4.2043,-4.2132,-4.2105,-4.2142,-4.2151,-4.216,-4.2168,-4.1927,-4.215,-4.2149,-4.2149,-4.2148,-4.2148,0,-4.1202,-4.1248,-4.1339,-4.1441,-4.1519,-4.1501,-4.158,-4.1646,-4.1747,-4.1816,-4.1897,-4.2018,-4.2116,-4.2168,-4.2266,-4.2327,-4.2324,-4.2352,-4.2348,-4.2358,-4.2187,-4.2155,-4.2353,-4.2353,-4.2353,-4.2353,-4.2353,-4.2353,-4.1322,-4.1454,-4.1475,-4.1635,-4.1681,-4.1793,-4.184,-4.1903,-4.1957,-4.2093,-4.2175,-4.2208,-4.227,-4.2372,-4.2461,-4.2473,-4.251,-4.2542,-4.2551,-4.2391,-4.237,-4.235,-4.232,-4.2549,-4.255,-4.2715,-4.2716,-4.2717]}]]